Pampa, TX

9:14 AM CDT on September 20, 2017 (GMT -0500)
Perry Lefors

Weather History for KPPA - August, 2013

Change the Weather History Date:

Saturday, August 3, 2013

  Actual Average Record
Temperature  
Mean Temperature 86 °F -  
Max Temperature 100 °F 91 °F 105 °F (2012)
Min Temperature 72 °F 65 °F 56 °F (1974)
Cooling Degree Days 20    
Growing Degree Days 36 (Base 50)    
Moisture  
Dew Point 56 °F    
Average Humidity 41    
Maximum Humidity 59    
Minimum Humidity 19    
Precipitation  
Precipitation 0.00 in - - ()
Sea Level Pressure  
Sea Level Pressure 30.02 in    
Wind  
Wind Speed 12 mph (SW)    
Max Wind Speed 20 mph    
Max Gust Speed 23 mph    
Visibility 10 miles    
Events Rain , Thunderstorm    
Averages and records for this station are not official NWS values.
T = Trace of Precipitation, MM = Missing Value Source: NWS Daily Summary

Daily Weather History Graph

Daily Weather History Graph

Search for Another Location

Airport or City:

Trip Planner

Search our weather history database for the weather conditions in past years. The results will help you decide how hot, cold, wet, or windy it might be!

Date:

Astronomy

Aug. 03, 2013 Rise Set
Actual Time 6:53 AM CDT 8:45 PM CDT
Civil Twilight 6:26 AM CDT 9:13 PM CDT
Nautical Twilight 5:52 AM CDT 9:47 PM CDT
Astronomical Twilight 5:16 AM CDT 10:23 PM CDT
Moon 4:06 AM CDT (8/3) 6:28 PM CDT (8/3)
Length of Visible Light 14h 47m
Length of Day
13h 51m
Waning Crescent, 9% of the Moon is Illuminated
Aug 3
Waning Crescent
Aug 6
New
Aug 14
First Quarter
Aug 20
Full
Aug 28
Last Quarter

Hourly Weather History & Observations

Time (CDT) Temp. Heat Index Dew Point Humidity Pressure Visibility Wind Dir Wind Speed Gust Speed Precip Events Conditions
12:15 AM 81.9 °F - 48.0 °F 31% 29.96 in 10.0 mi SSW 15.0 mph - N/A   Clear
12:35 AM 82.0 °F - 49.1 °F 32% 29.96 in 10.0 mi South 15.0 mph - N/A   Scattered Clouds
12:55 AM 80.6 °F - 49.6 °F 34% 29.97 in 10.0 mi SSW 13.8 mph - N/A   Scattered Clouds
1:15 AM 81.1 °F - 50.7 °F 35% 29.97 in 10.0 mi South 15.0 mph - N/A   Scattered Clouds
1:35 AM 80.1 °F - 51.3 °F 37% 29.98 in 10.0 mi South 13.8 mph - N/A   Scattered Clouds
1:55 AM 78.6 °F - 52.5 °F 40% 29.97 in 10.0 mi South 12.7 mph - N/A   Mostly Cloudy
2:15 AM 79.5 °F - 53.1 °F 40% 29.97 in 10.0 mi SSW 16.1 mph - N/A   Scattered Clouds
2:35 AM 79.2 °F - 53.1 °F 40% 29.97 in 10.0 mi South 12.7 mph - N/A   Scattered Clouds
2:55 AM 78.8 °F - 52.7 °F 40% 29.98 in 10.0 mi South 11.5 mph - N/A   Mostly Cloudy
3:15 AM 78.3 °F - 52.9 °F 41% 29.98 in 10.0 mi South 11.5 mph - N/A   Scattered Clouds
3:35 AM 77.2 °F - 53.6 °F 44% 29.99 in 10.0 mi South 11.5 mph - N/A   Scattered Clouds
3:55 AM 76.1 °F - 54.0 °F 46% 29.99 in 10.0 mi South 9.2 mph - N/A   Clear
4:15 AM 73.9 °F - 54.5 °F 51% 29.99 in 10.0 mi South 8.1 mph - N/A   Clear
4:35 AM 73.4 °F - 54.9 °F 52% 29.98 in 10.0 mi South 9.2 mph - N/A   Clear
4:55 AM 72.9 °F - 55.0 °F 53% 29.97 in 10.0 mi South 10.4 mph - N/A   Clear
5:15 AM 73.4 °F - 55.0 °F 52% 29.97 in 10.0 mi South 11.5 mph - N/A   Clear
5:35 AM 73.0 °F - 55.4 °F 54% 29.97 in 10.0 mi South 12.7 mph - N/A   Clear
5:55 AM 72.9 °F - 55.4 °F 54% 29.97 in 10.0 mi South 11.5 mph - N/A   Clear
6:15 AM 74.8 °F - 54.5 °F 49% 29.99 in 10.0 mi SSW 11.5 mph - N/A   Clear
6:35 AM 74.3 °F - 54.5 °F 50% 29.99 in 10.0 mi SW 10.4 mph 16.1 mph N/A   Clear
6:55 AM 73.4 °F - 54.5 °F 51% 30.00 in 10.0 mi SW 11.5 mph - N/A   Clear
7:15 AM 73.9 °F - 54.0 °F 50% 30.00 in 10.0 mi SW 12.7 mph - N/A   Clear
7:35 AM 75.6 °F - 53.6 °F 46% 30.00 in 10.0 mi SW 12.7 mph - N/A   Clear
7:55 AM 76.8 °F - 53.4 °F 44% 30.01 in 10.0 mi SW 13.8 mph - N/A   Clear
8:15 AM 78.4 °F - 53.6 °F 42% 30.01 in 10.0 mi SW 13.8 mph 18.4 mph N/A   Clear
8:35 AM 80.6 °F 80.3 °F 53.6 °F 39% 30.02 in 10.0 mi SW 12.7 mph - N/A   Clear
8:55 AM 82.6 °F - 52.9 °F 36% 30.01 in 10.0 mi WSW 17.3 mph - N/A   Clear
9:15 AM 84.4 °F - 51.8 °F 32% 30.02 in 10.0 mi West 19.6 mph - N/A   Clear
9:35 AM 84.7 °F - 52.0 °F 32% 30.02 in 10.0 mi West 15.0 mph - N/A   Clear
9:55 AM 85.6 °F 83.8 °F 53.2 °F 33% 30.03 in 10.0 mi West 15.0 mph - N/A   Clear
10:15 AM 86.9 °F 85.1 °F 54.7 °F 33% 30.03 in 10.0 mi West 15.0 mph - N/A   Clear
10:35 AM 86.5 °F 85.9 °F 59.0 °F 39% 30.04 in 10.0 mi WNW 11.5 mph - N/A   Clear
10:55 AM 85.8 °F 85.9 °F 60.6 °F 43% 30.05 in 10.0 mi NW 11.5 mph - N/A   Clear
11:15 AM 82.8 °F 83.4 °F 61.7 °F 49% 30.05 in 10.0 mi WNW 9.2 mph - N/A   Clear
11:35 AM 83.1 °F 84.0 °F 62.8 °F 50% 30.05 in 10.0 mi NNW 9.2 mph - N/A   Clear
11:55 AM 84.4 °F 85.2 °F 63.0 °F 48% 30.06 in 5.0 mi WNW 5.8 mph - N/A   Haze
12:15 PM 84.2 °F 85.6 °F 64.0 °F 51% 30.06 in 3.0 mi North 9.2 mph - N/A Rain Light Rain
12:35 PM 86.7 °F 88.4 °F 64.8 °F 48% 30.06 in 2.0 mi North 6.9 mph - N/A   Haze
12:55 PM 86.7 °F 87.8 °F 63.5 °F 46% 30.06 in 10.0 mi NW 3.5 mph - N/A   Clear
1:15 PM 88.0 °F 88.7 °F 62.6 °F 43% 30.05 in 10.0 mi WNW 4.6 mph - N/A   Clear
1:35 PM 88.7 °F 88.8 °F 61.3 °F 40% 30.06 in 10.0 mi West 3.5 mph - N/A   Clear
1:55 PM 90.7 °F 91.0 °F 61.5 °F 38% 30.05 in 10.0 mi WSW 5.8 mph - N/A   Clear
2:15 PM 91.4 °F 91.0 °F 60.3 °F 35% 30.04 in 10.0 mi SSE 3.5 mph - N/A   Clear
2:35 PM 91.9 °F 91.2 °F 59.4 °F 33% 30.03 in 10.0 mi Calm Calm - N/A   Clear
2:55 PM 95.5 °F 94.1 °F 56.5 °F 27% 30.03 in 10.0 mi WNW 3.5 mph - N/A   Clear
3:15 PM 96.6 °F 94.8 °F 54.9 °F 25% 30.02 in 10.0 mi SW 9.2 mph 19.6 mph N/A   Clear
3:35 PM 97.0 °F 95.3 °F 55.8 °F 25% 30.02 in 10.0 mi West 6.9 mph - N/A   Clear
3:55 PM 99.1 °F - 52.9 °F 21% 30.01 in 10.0 mi SSW 6.9 mph 18.4 mph N/A   Clear
4:15 PM 99.5 °F - 52.9 °F 21% 30.00 in 10.0 mi SW 13.8 mph 18.4 mph N/A   Clear
4:35 PM 98.2 °F 95.9 °F 53.2 °F 22% 30.00 in 10.0 mi WSW 6.9 mph 17.3 mph N/A   Clear
4:55 PM 95.4 °F 93.2 °F 53.8 °F 25% 30.00 in 10.0 mi South 10.4 mph - N/A   Scattered Clouds
5:15 PM 96.1 °F - 50.9 °F 22% 29.99 in 10.0 mi SSW 5.8 mph 17.3 mph N/A   Scattered Clouds
5:35 PM 99.3 °F - 49.6 °F 19% 29.99 in 10.0 mi Calm Calm - N/A   Scattered Clouds
5:55 PM 98.8 °F - 50.4 °F 19% 29.99 in 10.0 mi SW 6.9 mph - N/A   Mostly Cloudy
6:15 PM 95.7 °F - 49.3 °F 21% 30.00 in 10.0 mi SSW 8.1 mph - N/A Thunderstorm Scattered Clouds
6:35 PM 90.1 °F 90.9 °F 62.6 °F 40% 30.01 in 10.0 mi NNW 12.7 mph 16.1 mph N/A Thunderstorm Mostly Cloudy
6:55 PM 86.0 °F 85.9 °F 60.6 °F 42% 30.02 in 10.0 mi North 16.1 mph 21.9 mph N/A   Mostly Cloudy
7:15 PM 85.3 °F 84.4 °F 57.6 °F 39% 30.00 in 10.0 mi North 8.1 mph 18.4 mph N/A Thunderstorm Scattered Clouds
7:35 PM 85.1 °F 84.4 °F 58.1 °F 40% 30.03 in 10.0 mi NE 12.7 mph 17.3 mph N/A   Scattered Clouds
7:55 PM 84.2 °F 83.2 °F 56.3 °F 38% 30.03 in 10.0 mi NE 15.0 mph - N/A   Scattered Clouds
8:15 PM 81.1 °F 82.4 °F 63.1 °F 54% 30.04 in 10.0 mi NE 16.1 mph 23.0 mph N/A   Scattered Clouds
8:35 PM 79.0 °F - 63.3 °F 59% 30.05 in 10.0 mi ENE 11.5 mph - N/A   Mostly Cloudy
8:55 PM 81.0 °F 81.9 °F 62.1 °F 52% 30.06 in 10.0 mi ENE 12.7 mph - N/A   Scattered Clouds
9:15 PM 79.5 °F - 63.1 °F 57% 30.07 in 10.0 mi NE 18.4 mph 21.9 mph N/A   Mostly Cloudy
9:35 PM 78.8 °F - 62.6 °F 57% 30.08 in 10.0 mi NE 12.7 mph - N/A   Overcast
9:55 PM 78.3 °F - 61.7 °F 57% 30.10 in 10.0 mi NE 11.5 mph 16.1 mph N/A   Overcast
10:15 PM 78.3 °F - 61.3 °F 56% 30.11 in 10.0 mi NNE 12.7 mph - N/A   Overcast
10:35 PM 78.3 °F - 61.7 °F 57% 30.11 in 10.0 mi ENE 12.7 mph - N/A   Mostly Cloudy
10:55 PM 79.2 °F - 60.6 °F 53% 30.11 in 10.0 mi East 13.8 mph - N/A   Mostly Cloudy
11:15 PM 79.3 °F - 59.5 °F 51% 30.10 in 10.0 mi East 12.7 mph - N/A   Scattered Clouds
11:35 PM 79.3 °F - 59.2 °F 50% 30.09 in 10.0 mi ESE 10.4 mph - N/A   Clear
11:55 PM 79.0 °F - 59.2 °F 51% 30.09 in 10.0 mi SE 10.4 mph - N/A   Clear